Location: Canyon Rim
(40.8777°N, 111.8641°W)
Time: 07:08:13
(UTC+00:00)

X-37B - Pass Details

Date: 29 April 2021
Orbit: 386 x 389 km, 45.0° (Epoch: 08 May)

Event Time Altitude Azimuth Distance (km) Brightness Sun altitude
Exits shadow 11:32:10 16° 231° (SW) 1,104 2.2 -10.4°
Maximum altitude 11:32:42 17° 218° (SW) 1,079 2.3 -10.3°
Drops below altitude 10° 11:34:49 10° 176° (S) 1,405 3.2 -9.9°
Sets 11:37:22 0° 154° (SSE) 2,253 4.4 -9.5°
